2023/10/22 00:00:00, 0.4, 8.9
2023/10/22 00:10:00, 0.4, 8.8
2023/10/22 00:20:00, 0.5, 9.0
2023/10/22 00:30:00, 0.4, 8.7
2023/10/22 00:40:00, 0.4, 8.9
2023/10/22 00:50:00, 0.4, 9.1
2023/10/22 01:00:00, 0.4, 9.0
2023/10/22 01:10:00, 0.4, 9.2
2023/10/22 01:20:00, 0.4, 8.5
2023/10/22 01:30:00, 0.5, 8.6
2023/10/22 01:40:00, 0.5, 8.9
2023/10/22 01:50:00, 0.4, 8.7
2023/10/22 02:00:00, 0.4, 8.5
2023/10/22 02:10:00, 0.4, 8.4
2023/10/22 02:20:00, 0.5, 8.5
2023/10/22 02:30:00, 0.5, 8.6
2023/10/22 02:40:00, 0.5, 8.2
2023/10/22 02:50:00, 0.5, 8.5
2023/10/22 03:00:00, 0.4, 8.6
2023/10/22 03:10:00, 0.5, 8.8
2023/10/22 03:20:00, 0.4, 8.5
2023/10/22 03:30:00, 0.4, 8.4
2023/10/22 03:40:00, 0.4, 8.2
2023/10/22 03:50:00, 0.5, 8.0
2023/10/22 04:00:00, 0.4, 8.2
2023/10/22 04:10:00, 0.5, 8.1
2023/10/22 04:20:00, 0.5, 8.1
2023/10/22 04:30:00, 0.4, 8.6
2023/10/22 04:40:00, 0.4, 8.6
2023/10/22 04:50:00, 0.5, 8.3
2023/10/22 05:00:00, 0.5, 8.7
2023/10/22 05:10:00, 0.5, 8.9
2023/10/22 05:20:00, 0.4, 8.2
2023/10/22 05:30:00, 0.4, 8.0
2023/10/22 05:40:00, 0.4, 7.9
2023/10/22 05:50:00, 0.4, 7.8
2023/10/22 06:00:00, 0.5, 7.6
2023/10/22 06:10:00, 0.4, 7.9
2023/10/22 06:20:00, 0.5, 7.6
2023/10/22 06:30:00, 0.4, 7.9
2023/10/22 06:40:00, 0.3, 7.6
2023/10/22 06:50:00, 0.4, 7.8
2023/10/22 07:00:00, 0.4, 7.6
2023/10/22 07:10:00, 0.4, 8.1
2023/10/22 07:20:00, 0.4,10.3
2023/10/22 07:30:00, 0.5,10.8
2023/10/22 07:40:00, 0.6,11.3
2023/10/22 07:50:00, 0.6,11.9
2023/10/22 08:00:00, 0.5,11.7
2023/10/22 08:10:00, 0.5,12.0
2023/10/22 08:20:00, 0.5,12.3
2023/10/22 08:30:00, 0.5,12.8
2023/10/22 08:40:00, 0.5,12.3
2023/10/22 08:50:00, 0.5,12.9
2023/10/22 09:00:00, 0.6,13.6
2023/10/22 09:10:00, 0.5,14.2
2023/10/22 09:20:00, 0.5,14.5
2023/10/22 09:30:00, 0.4,15.2
2023/10/22 09:40:00, 0.3,15.3
2023/10/22 09:50:00, 0.3,17.2
2023/10/22 10:00:00, 0.4,18.7
2023/10/22 10:10:00, 0.3,20.1
2023/10/22 10:20:00, 0.3,21.0
2023/10/22 10:30:00, 0.4,21.9
2023/10/22 10:40:00, 0.4,22.9
2023/10/22 10:50:00, 0.3,20.6
2023/10/22 11:00:00, 0.3,24.0
2023/10/22 11:10:00, 0.3,21.5
2023/10/22 11:20:00, 0.2,23.0
2023/10/22 11:30:00, 0.2,23.4
2023/10/22 11:40:00, 0.2,24.1
2023/10/22 11:50:00, 0.1,23.8
2023/10/22 12:00:00, 0.0,24.9
2023/10/22 12:10:00, 0.1,21.0
2023/10/22 12:20:00, 0.0,20.9
2023/10/22 12:30:00, 0.1,23.7
2023/10/22 12:40:00, 0.1,24.1
2023/10/22 12:50:00, 0.1,23.9
2023/10/22 13:00:00, 0.0,25.1
2023/10/22 13:10:00, 0.0,24.8
2023/10/22 13:20:00, 0.0,24.3
2023/10/22 13:30:00, 0.0,24.7
2023/10/22 13:40:00, 0.0,22.6
2023/10/22 13:50:00, 0.0,25.8
2023/10/22 14:00:00, 0.0,23.6
2023/10/22 14:10:00, 0.1,21.9
2023/10/22 14:20:00, 0.0,24.4
2023/10/22 14:30:00, 0.0,25.4
2023/10/22 14:40:00, 0.1,20.6
2023/10/22 14:50:00, 0.1,23.0
2023/10/22 15:00:00, 0.1,24.7
2023/10/22 15:10:00, 0.1,26.3
2023/10/22 15:20:00, 0.0,25.0
2023/10/22 15:30:00, 0.1,23.0
2023/10/22 15:40:00, 0.1,24.4
2023/10/22 15:50:00, 0.1,22.6
2023/10/22 16:00:00, 0.2,21.6
2023/10/22 16:10:00, 0.2,20.2
2023/10/22 16:20:00, 0.2,18.7
2023/10/22 16:30:00, 0.2,17.3
2023/10/22 16:40:00, 0.2,16.1
2023/10/22 16:50:00, 0.3,15.2
2023/10/22 17:00:00, 0.3,14.8
2023/10/22 17:10:00, 0.3,14.0
2023/10/22 17:20:00, 0.3,13.3
2023/10/22 17:30:00, 0.3,12.4
2023/10/22 17:40:00, 0.3,12.0
2023/10/22 17:50:00, 0.4,11.6
2023/10/22 18:00:00, 0.4,11.9
2023/10/22 18:10:00, 0.4,11.9
2023/10/22 18:20:00, 0.4,12.2
2023/10/22 18:30:00, 0.3,12.1
2023/10/22 18:40:00, 0.3,11.8
2023/10/22 18:50:00, 0.3,11.8
2023/10/22 19:00:00, 0.3,11.5
2023/10/22 19:10:00, 0.4,11.6
2023/10/22 19:20:00, 0.4,11.3
2023/10/22 19:30:00, 0.4,11.3
2023/10/22 19:40:00, 0.4,11.4
2023/10/22 19:50:00, 0.4,11.5
2023/10/22 20:00:00, 0.4,11.1
2023/10/22 20:10:00, 0.4,10.9
2023/10/22 20:20:00, 0.4,10.7
2023/10/22 20:30:00, 0.5,10.7
2023/10/22 20:40:00, 0.5,10.8
2023/10/22 20:50:00, 0.5,10.2
2023/10/22 21:00:00, 0.5,10.3
2023/10/22 21:10:00, 0.5,10.2
2023/10/22 21:20:00, 0.5,10.3
2023/10/22 21:30:00, 0.4,10.3
2023/10/22 21:40:00, 0.4,10.3
2023/10/22 21:50:00, 0.4,10.4
2023/10/22 22:00:00, 0.4,10.5
2023/10/22 22:10:00, 0.4,10.3
2023/10/22 22:20:00, 0.4, 9.8
2023/10/22 22:30:00, 0.4, 9.8
2023/10/22 22:40:00, 0.4, 9.9
2023/10/22 22:50:00, 0.4, 9.9
2023/10/22 23:00:00, 0.4,10.1
2023/10/22 23:10:00, 0.4,10.0
2023/10/22 23:20:00, 0.4,10.4
2023/10/22 23:30:00, 0.4,10.8
2023/10/22 23:40:00, 0.4, 9.8
2023/10/22 23:50:00, 0.4, 9.7
